Time,TemperatureF,DewpointF,PressureIn,WindDirection,WindDirectionDegrees,WindSpeedMPH,WindSpeedGustMPH,Humidity,HourlyPrecipIn,Conditions,Clouds,dailyrainin,SoftwareType,DateUTC
2013-01-12 00:00:00,65.3,60.8,29.32,WSW,239,5.0,5.0,83,0.00,,,0.00,WeatherTracker,2013-01-12 06:00:00,
2013-01-12 00:05:00,65.3,60.8,29.32,SW,232,5.0,6.0,83,0.00,,,0.00,WeatherTracker,2013-01-12 06:05:00,
2013-01-12 00:10:00,65.3,60.8,29.32,SSE,161,4.0,4.0,83,0.00,,,0.00,WeatherTracker,2013-01-12 06:10:00,
2013-01-12 00:20:00,65.3,60.8,29.32,WSW,249,5.0,5.0,83,0.00,,,0.00,WeatherTracker,2013-01-12 06:20:00,
2013-01-12 00:30:00,65.5,60.8,29.32,WSW,238,5.0,8.0,83,0.00,,,0.00,WeatherTracker,2013-01-12 06:30:00,
2013-01-12 00:40:00,65.7,60.8,29.32,WSW,249,4.0,4.0,83,0.00,,,0.00,WeatherTracker,2013-01-12 06:40:00,
2013-01-12 00:45:00,65.7,60.8,29.32,WSW,240,5.0,6.0,83,0.00,,,0.00,WeatherTracker,2013-01-12 06:45:00,
2013-01-12 00:50:00,65.8,60.8,29.32,South,177,5.0,5.0,83,0.00,,,0.00,WeatherTracker,2013-01-12 06:50:00,
2013-01-12 00:55:00,65.8,60.8,29.32,WSW,244,6.0,6.0,83,0.00,,,0.00,WeatherTracker,2013-01-12 06:55:00,
2013-01-12 01:05:00,65.8,60.8,29.29,WSW,243,4.0,5.0,83,0.00,,,0.00,WeatherTracker,2013-01-12 07:05:00,
2013-01-12 01:15:00,65.8,60.8,29.29,WSW,251,4.0,5.0,83,0.00,,,0.00,WeatherTracker,2013-01-12 07:15:00,
2013-01-12 01:25:00,65.8,60.8,29.29,SSW,211,3.0,3.0,83,0.00,,,0.00,WeatherTracker,2013-01-12 07:25:00,
2013-01-12 01:30:00,65.8,60.8,29.29,WSW,248,4.0,6.0,83,0.00,,,0.00,WeatherTracker,2013-01-12 07:30:00,
2013-01-12 01:40:00,65.8,60.8,29.29,SW,233,7.0,8.0,83,0.00,,,0.00,WeatherTracker,2013-01-12 07:40:00,
2013-01-12 01:50:00,65.8,60.8,29.29,SSE,158,4.0,4.0,83,0.00,,,0.00,WeatherTracker,2013-01-12 07:50:00,
2013-01-12 02:00:00,65.8,60.8,29.29,WNW,282,4.0,0.0,84,0.00,,,0.00,WeatherTracker,2013-01-12 08:00:00,
2013-01-12 02:05:00,65.8,60.8,29.29,WSW,256,0.0,3.0,84,0.00,,,0.00,WeatherTracker,2013-01-12 08:05:00,
2013-01-12 02:15:00,65.8,60.8,29.29,SW,225,0.0,3.0,84,0.00,,,0.00,WeatherTracker,2013-01-12 08:15:00,
2013-01-12 02:25:00,65.8,60.8,29.29,SW,233,0.0,0.0,84,0.00,,,0.00,WeatherTracker,2013-01-12 08:25:00,
2013-01-12 02:30:00,65.8,60.8,29.29,NNE,32,0.0,0.0,85,0.00,,,0.00,WeatherTracker,2013-01-12 08:30:00,
2013-01-12 02:40:00,65.8,60.8,29.26,West,266,0.0,3.0,85,0.00,,,0.00,WeatherTracker,2013-01-12 08:40:00,
2013-01-12 02:50:00,65.8,60.8,29.29,NW,308,2.0,0.0,85,0.00,,,0.00,WeatherTracker,2013-01-12 08:50:00,
2013-01-12 03:00:00,65.8,60.8,29.29,WNW,298,3.0,4.0,85,0.00,,,0.00,WeatherTracker,2013-01-12 09:00:00,
2013-01-12 03:05:00,65.8,60.8,29.26,ENE,77,2.0,4.0,85,0.00,,,0.00,WeatherTracker,2013-01-12 09:05:00,
2013-01-12 03:15:00,65.8,60.8,29.26,WSW,246,5.0,5.0,85,0.00,,,0.00,WeatherTracker,2013-01-12 09:15:00,
2013-01-12 03:25:00,65.7,62.6,29.29,West,260,4.0,4.0,86,0.00,,,0.00,WeatherTracker,2013-01-12 09:25:00,
2013-01-12 03:35:00,65.7,62.6,29.29,West,280,0.0,0.0,87,0.00,,,0.00,WeatherTracker,2013-01-12 09:35:00,
2013-01-12 03:45:00,65.5,62.6,29.29,South,187,0.0,3.0,88,0.00,,,0.00,WeatherTracker,2013-01-12 09:45:00,
2013-01-12 03:50:00,65.5,62.6,29.26,ENE,70,0.0,0.0,88,0.00,,,0.00,WeatherTracker,2013-01-12 09:50:00,
2013-01-12 04:00:00,65.5,62.6,29.26,East,85,0.0,0.0,89,0.00,,,0.00,WeatherTracker,2013-01-12 10:00:00,
2013-01-12 04:05:00,65.3,62.6,29.26,ENE,67,0.0,0.0,89,0.00,,,0.00,WeatherTracker,2013-01-12 10:05:00,
2013-01-12 04:10:00,65.3,62.6,29.26,East,101,0.0,0.0,89,0.00,,,0.00,WeatherTracker,2013-01-12 10:10:00,
2013-01-12 04:20:00,65.3,62.6,29.26,West,267,0.0,0.0,89,0.00,,,0.00,WeatherTracker,2013-01-12 10:20:00,
2013-01-12 04:25:00,65.3,62.6,29.26,NNW,337,0.0,0.0,89,0.00,,,0.00,WeatherTracker,2013-01-12 10:25:00,
2013-01-12 04:35:00,65.1,60.8,29.26,WSW,247,3.0,3.0,90,0.00,,,0.00,WeatherTracker,2013-01-12 10:35:00,
2013-01-12 04:45:00,65.1,60.8,29.26,WSW,247,0.0,0.0,90,0.00,,,0.00,WeatherTracker,2013-01-12 10:45:00,
2013-01-12 04:50:00,65.1,60.8,29.26,WSW,247,0.0,0.0,90,0.00,,,0.00,WeatherTracker,2013-01-12 10:50:00,
2013-01-12 05:00:00,65.1,60.8,29.26,WSW,247,0.0,0.0,90,0.00,,,0.00,WeatherTracker,2013-01-12 11:00:00,
2013-01-12 05:10:00,64.9,60.8,29.26,WSW,247,0.0,0.0,90,0.00,,,0.00,WeatherTracker,2013-01-12 11:10:00,
2013-01-12 05:20:00,64.8,60.8,29.26,WSW,247,0.0,0.0,90,0.00,,,0.00,WeatherTracker,2013-01-12 11:20:00,
2013-01-12 05:30:00,64.8,60.8,29.26,WSW,247,0.0,0.0,90,0.00,,,0.00,WeatherTracker,2013-01-12 11:30:00,
2013-01-12 05:35:00,64.8,60.8,29.26,WSW,247,0.0,0.0,90,0.00,,,0.00,WeatherTracker,2013-01-12 11:35:00,
2013-01-12 05:45:00,64.6,60.8,29.26,NW,326,0.0,0.0,90,0.00,,,0.00,WeatherTracker,2013-01-12 11:45:00,
2013-01-12 05:55:00,64.2,62.6,29.26,NW,326,0.0,0.0,91,0.00,,,0.00,WeatherTracker,2013-01-12 11:55:00,
2013-01-12 06:05:00,64.0,62.6,29.26,NW,326,0.0,0.0,91,0.00,,,0.00,WeatherTracker,2013-01-12 12:05:00,
2013-01-12 06:10:00,64.2,62.6,29.26,NW,326,0.0,0.0,92,0.00,,,0.00,WeatherTracker,2013-01-12 12:10:00,
2013-01-12 06:20:00,64.2,62.6,29.26,NW,326,0.0,0.0,92,0.00,,,0.00,WeatherTracker,2013-01-12 12:20:00,
2013-01-12 06:25:00,64.2,62.6,29.26,NW,326,0.0,0.0,92,0.00,,,0.00,WeatherTracker,2013-01-12 12:25:00,
2013-01-12 06:30:00,64.2,62.6,29.26,NW,326,0.0,0.0,92,0.00,,,0.00,WeatherTracker,2013-01-12 12:30:00,
2013-01-12 06:40:00,64.2,62.6,29.26,NW,326,0.0,0.0,92,0.00,,,0.00,WeatherTracker,2013-01-12 12:40:00,
2013-01-12 06:45:00,64.0,62.6,29.26,NW,326,0.0,0.0,92,0.00,,,0.00,WeatherTracker,2013-01-12 12:45:00,
2013-01-12 06:55:00,63.9,62.6,29.26,NW,326,0.0,0.0,92,0.00,,,0.00,WeatherTracker,2013-01-12 12:55:00,
2013-01-12 07:05:00,63.7,62.6,29.26,NW,326,0.0,0.0,93,0.00,,,0.00,WeatherTracker,2013-01-12 13:05:00,
2013-01-12 07:10:00,63.9,62.6,29.26,NW,326,0.0,0.0,93,0.00,,,0.00,WeatherTracker,2013-01-12 13:10:00,
2013-01-12 07:20:00,63.9,62.6,29.26,NW,326,0.0,0.0,93,0.00,,,0.00,WeatherTracker,2013-01-12 13:20:00,
2013-01-12 07:30:00,63.9,62.6,29.26,NW,326,0.0,0.0,94,0.00,,,0.00,WeatherTracker,2013-01-12 13:30:00,
2013-01-12 07:40:00,64.0,62.6,29.26,NW,326,0.0,0.0,94,0.00,,,0.00,WeatherTracker,2013-01-12 13:40:00,
2013-01-12 07:50:00,64.0,62.6,29.26,NW,326,0.0,0.0,95,0.00,,,0.00,WeatherTracker,2013-01-12 13:50:00,
2013-01-12 07:55:00,64.0,62.6,29.26,NNW,327,0.0,0.0,95,0.00,,,0.00,WeatherTracker,2013-01-12 13:55:00,
2013-01-12 08:00:00,64.0,62.6,29.26,NW,326,0.0,0.0,95,0.00,,,0.00,WeatherTracker,2013-01-12 14:00:00,
2013-01-12 08:05:00,64.2,62.6,29.29,NW,326,0.0,0.0,95,0.00,,,0.00,WeatherTracker,2013-01-12 14:05:00,
2013-01-12 08:15:00,64.4,62.6,29.29,NNE,31,0.0,0.0,95,0.00,,,0.00,WeatherTracker,2013-01-12 14:15:00,
2013-01-12 08:25:00,64.6,62.6,29.29,NNE,31,0.0,0.0,95,0.00,,,0.00,WeatherTracker,2013-01-12 14:25:00,
2013-01-12 08:30:00,64.6,62.6,29.29,NNE,31,0.0,0.0,95,0.00,,,0.00,WeatherTracker,2013-01-12 14:30:00,
2013-01-12 08:40:00,64.8,62.6,29.26,NNE,31,0.0,0.0,96,0.00,,,0.00,WeatherTracker,2013-01-12 14:40:00,
2013-01-12 08:45:00,64.9,62.6,29.26,NNE,31,0.0,0.0,96,0.00,,,0.00,WeatherTracker,2013-01-12 14:45:00,
2013-01-12 08:50:00,64.9,62.6,29.26,NNE,26,0.0,0.0,96,0.00,,,0.00,WeatherTracker,2013-01-12 14:50:00,
2013-01-12 09:00:00,65.1,62.6,29.26,NNE,26,0.0,0.0,96,0.00,,,0.00,WeatherTracker,2013-01-12 15:00:00,
2013-01-12 09:05:00,65.1,62.6,29.26,NNE,26,0.0,0.0,96,0.00,,,0.00,WeatherTracker,2013-01-12 15:05:00,
2013-01-12 09:15:00,65.1,62.6,29.26,North,357,0.0,0.0,96,0.00,,,0.00,WeatherTracker,2013-01-12 15:15:00,
2013-01-12 09:25:00,65.5,66.2,29.26,North,357,0.0,0.0,97,0.00,,,0.00,WeatherTracker,2013-01-12 15:25:00,
2013-01-12 09:30:00,65.5,66.2,29.26,North,357,0.0,0.0,97,0.00,,,0.00,WeatherTracker,2013-01-12 15:30:00,
2013-01-12 09:35:00,65.5,66.2,29.26,North,357,0.0,0.0,97,0.00,,,0.00,WeatherTracker,2013-01-12 15:35:00,
2013-01-12 09:40:00,65.7,66.2,29.26,North,357,0.0,0.0,97,0.00,,,0.00,WeatherTracker,2013-01-12 15:40:00,
2013-01-12 09:50:00,65.8,66.2,29.26,North,357,0.0,0.0,97,0.00,,,0.00,WeatherTracker,2013-01-12 15:50:00,
2013-01-12 10:00:00,65.8,66.2,29.26,North,0,0.0,0.0,97,0.00,,,0.00,WeatherTracker,2013-01-12 16:00:00,
2013-01-12 10:10:00,65.8,66.2,29.26,NNE,22,0.0,0.0,97,0.00,,,0.00,WeatherTracker,2013-01-12 16:10:00,
2013-01-12 10:15:00,65.8,66.2,29.26,NNE,22,0.0,0.0,97,0.00,,,0.00,WeatherTracker,2013-01-12 16:15:00,
2013-01-12 10:20:00,65.8,66.2,29.26,NNE,22,0.0,0.0,97,0.00,,,0.00,WeatherTracker,2013-01-12 16:20:00,
2013-01-12 10:25:00,65.8,66.2,29.26,NNE,22,0.0,0.0,97,0.00,,,0.00,WeatherTracker,2013-01-12 16:25:00,
2013-01-12 10:35:00,66.0,66.2,29.26,NNE,22,0.0,0.0,97,0.00,,,0.00,WeatherTracker,2013-01-12 16:35:00,
2013-01-12 10:40:00,65.1,64.4,29.26,NE,51,0.0,0.0,97,0.00,,,0.00,WeatherTracker,2013-01-12 16:40:00,
2013-01-12 10:45:00,64.2,62.6,29.26,NNE,33,0.0,3.0,96,0.00,,,0.00,WeatherTracker,2013-01-12 16:45:00,
2013-01-12 10:50:00,63.1,60.8,29.26,NNE,25,0.0,0.0,96,0.00,,,0.00,WeatherTracker,2013-01-12 16:50:00,
2013-01-12 11:00:00,62.2,60.8,29.26,NNE,27,0.0,0.0,94,0.00,,,0.00,WeatherTracker,2013-01-12 17:00:00,
2013-01-12 11:05:00,61.7,60.8,29.26,NNE,27,0.0,0.0,93,0.00,,,0.00,WeatherTracker,2013-01-12 17:05:00,
2013-01-12 11:10:00,61.5,59.0,29.26,NE,38,0.0,0.0,91,0.00,,,0.00,WeatherTracker,2013-01-12 17:10:00,
2013-01-12 11:20:00,60.6,57.2,29.26,NE,54,0.0,0.0,90,0.00,,,0.00,WeatherTracker,2013-01-12 17:20:00,
2013-01-12 11:25:00,60.1,57.2,29.26,ENE,64,0.0,0.0,88,0.00,,,0.00,WeatherTracker,2013-01-12 17:25:00,
2013-01-12 11:30:00,59.2,53.6,29.26,North,1,0.0,0.0,84,0.00,,,0.00,WeatherTracker,2013-01-12 17:30:00,
2013-01-12 11:35:00,58.5,53.6,29.26,North,1,0.0,0.0,81,0.00,,,0.00,WeatherTracker,2013-01-12 17:35:00,
2013-01-12 11:45:00,57.7,50.0,29.26,NNE,30,0.0,0.0,79,0.00,,,0.00,WeatherTracker,2013-01-12 17:45:00,
2013-01-12 11:55:00,57.0,50.0,29.23,NNW,334,0.0,4.0,78,0.00,,,0.00,WeatherTracker,2013-01-12 17:55:00,
2013-01-12 12:00:00,56.8,50.0,29.23,NNE,24,0.0,0.0,75,0.00,,,0.00,WeatherTracker,2013-01-12 18:00:00,
2013-01-12 12:10:00,56.3,48.2,29.23,North,7,0.0,0.0,73,0.00,,,0.00,WeatherTracker,2013-01-12 18:10:00,
2013-01-12 12:20:00,56.1,46.4,29.23,ESE,103,0.0,0.0,72,0.00,,,0.00,WeatherTracker,2013-01-12 18:20:00,
2013-01-12 12:30:00,56.1,46.4,29.23,NNE,32,0.0,0.0,72,0.00,,,0.00,WeatherTracker,2013-01-12 18:30:00,
2013-01-12 12:35:00,56.1,46.4,29.23,North,10,0.0,0.0,73,0.00,,,0.00,WeatherTracker,2013-01-12 18:35:00,
2013-01-12 12:40:00,56.1,46.4,29.23,NNE,22,0.0,0.0,73,0.00,,,0.00,WeatherTracker,2013-01-12 18:40:00,
2013-01-12 12:45:00,56.1,46.4,29.23,North,357,0.0,0.0,73,0.00,,,0.00,WeatherTracker,2013-01-12 18:45:00,
2013-01-12 12:50:00,56.1,48.2,29.21,North,5,0.0,0.0,74,0.00,,,0.00,WeatherTracker,2013-01-12 18:50:00,
2013-01-12 12:55:00,56.1,48.2,29.21,North,11,0.0,0.0,74,0.00,,,0.00,WeatherTracker,2013-01-12 18:55:00,
2013-01-12 13:05:00,55.9,46.4,29.21,North,6,0.0,0.0,73,0.00,,,0.00,WeatherTracker,2013-01-12 19:05:00,
2013-01-12 13:10:00,55.9,46.4,29.21,North,0,0.0,0.0,73,0.00,,,0.00,WeatherTracker,2013-01-12 19:10:00,
2013-01-12 13:20:00,55.4,46.4,29.21,NNE,30,0.0,0.0,70,0.00,,,0.00,WeatherTracker,2013-01-12 19:20:00,
2013-01-12 13:30:00,55.0,44.6,29.21,NE,41,0.0,4.0,68,0.00,,,0.00,WeatherTracker,2013-01-12 19:30:00,
2013-01-12 13:35:00,55.0,44.6,29.21,NNE,32,0.0,0.0,67,0.00,,,0.00,WeatherTracker,2013-01-12 19:35:00,
2013-01-12 13:45:00,54.9,44.6,29.21,North,357,0.0,0.0,66,0.00,,,0.00,WeatherTracker,2013-01-12 19:45:00,
2013-01-12 13:50:00,54.5,42.8,29.21,NE,48,0.0,3.0,63,0.00,,,0.00,WeatherTracker,2013-01-12 19:50:00,
2013-01-12 13:55:00,54.5,42.8,29.21,NNW,340,0.0,0.0,62,0.00,,,0.00,WeatherTracker,2013-01-12 19:55:00,
2013-01-12 14:05:00,54.5,42.8,29.18,NNE,15,0.0,0.0,63,0.00,,,0.00,WeatherTracker,2013-01-12 20:05:00,
2013-01-12 14:10:00,54.7,42.8,29.18,NNE,14,0.0,0.0,64,0.00,,,0.00,WeatherTracker,2013-01-12 20:10:00,
2013-01-12 14:15:00,54.7,42.8,29.18,North,353,0.0,0.0,63,0.00,,,0.00,WeatherTracker,2013-01-12 20:15:00,
2013-01-12 14:20:00,54.9,42.8,29.18,NW,314,0.0,0.0,62,0.00,,,0.00,WeatherTracker,2013-01-12 20:20:00,
2013-01-12 14:30:00,54.7,41.0,29.18,NNE,31,0.0,0.0,60,0.00,,,0.00,WeatherTracker,2013-01-12 20:30:00,
2013-01-12 14:35:00,54.5,41.0,29.21,West,261,0.0,3.0,60,0.00,,,0.00,WeatherTracker,2013-01-12 20:35:00,
2013-01-12 14:40:00,54.3,39.2,29.21,NE,36,0.0,0.0,59,0.00,,,0.00,WeatherTracker,2013-01-12 20:40:00,
2013-01-12 14:45:00,54.0,37.4,29.21,ENE,75,3.0,3.0,55,0.00,,,0.00,WeatherTracker,2013-01-12 20:45:00,
2013-01-12 14:55:00,53.8,39.2,29.21,NNW,338,0.0,0.0,56,0.00,,,0.00,WeatherTracker,2013-01-12 20:55:00,
2013-01-12 15:05:00,53.6,39.2,29.21,North,357,0.0,0.0,56,0.00,,,0.00,WeatherTracker,2013-01-12 21:05:00,
2013-01-12 15:15:00,53.6,37.4,29.21,ENE,75,0.0,0.0,55,0.00,,,0.00,WeatherTracker,2013-01-12 21:15:00,
2013-01-12 15:25:00,53.6,37.4,29.23,NNE,24,0.0,0.0,55,0.00,,,0.00,WeatherTracker,2013-01-12 21:25:00,
2013-01-12 15:30:00,53.6,37.4,29.23,North,0,0.0,0.0,54,0.00,,,0.00,WeatherTracker,2013-01-12 21:30:00,
2013-01-12 15:40:00,53.4,35.6,29.23,North,0,0.0,0.0,51,0.00,,,0.00,WeatherTracker,2013-01-12 21:40:00,
2013-01-12 15:50:00,53.8,35.6,29.23,NE,56,0.0,0.0,50,0.00,,,0.00,WeatherTracker,2013-01-12 21:50:00,
2013-01-12 15:55:00,53.2,35.6,29.23,NNE,15,2.0,0.0,50,0.00,,,0.00,WeatherTracker,2013-01-12 21:55:00,
2013-01-12 16:05:00,51.8,33.8,29.26,NE,36,2.0,4.0,49,0.00,,,0.00,WeatherTracker,2013-01-12 22:05:00,
2013-01-12 16:10:00,51.3,33.8,29.26,NNE,33,0.0,0.0,51,0.00,,,0.00,WeatherTracker,2013-01-12 22:10:00,
2013-01-12 16:15:00,50.9,35.6,29.26,NE,54,2.0,0.0,53,0.00,,,0.00,WeatherTracker,2013-01-12 22:15:00,
2013-01-12 16:25:00,50.0,35.6,29.26,ENE,68,0.0,3.0,56,0.00,,,0.00,WeatherTracker,2013-01-12 22:25:00,
2013-01-12 16:35:00,49.3,35.6,29.29,NE,42,0.0,2.0,58,0.00,,,0.00,WeatherTracker,2013-01-12 22:35:00,
2013-01-12 16:40:00,48.7,33.8,29.29,NNE,12,2.0,3.0,57,0.00,,,0.00,WeatherTracker,2013-01-12 22:40:00,
2013-01-12 16:50:00,48.2,33.8,29.29,ENE,57,0.0,0.0,58,0.00,,,0.00,WeatherTracker,2013-01-12 22:50:00,
2013-01-12 16:55:00,47.8,33.8,29.29,North,2,0.0,0.0,57,0.00,,,0.00,WeatherTracker,2013-01-12 22:55:00,
2013-01-12 17:00:00,47.7,33.8,29.29,NE,39,0.0,0.0,57,0.00,,,0.00,WeatherTracker,2013-01-12 23:00:00,
2013-01-12 17:10:00,47.1,32.7,29.29,NE,36,0.0,4.0,57,0.00,,,0.00,WeatherTracker,2013-01-12 23:10:00,
2013-01-12 17:15:00,46.8,33.8,29.29,North,357,0.0,3.0,59,0.00,,,0.00,WeatherTracker,2013-01-12 23:15:00,
2013-01-12 17:25:00,46.2,32.3,29.29,North,357,0.0,3.0,58,0.00,,,0.00,WeatherTracker,2013-01-12 23:25:00,
2013-01-12 17:30:00,46.0,32.1,29.29,North,357,2.0,0.0,58,0.00,,,0.00,WeatherTracker,2013-01-12 23:30:00,
2013-01-12 17:40:00,45.9,31.9,29.32,ENE,67,0.0,0.0,58,0.00,,,0.00,WeatherTracker,2013-01-12 23:40:00,
2013-01-12 17:50:00,45.7,31.8,29.32,ENE,66,0.0,0.0,58,0.00,,,0.00,WeatherTracker,2013-01-12 23:50:00,
2013-01-12 18:00:00,45.3,30.6,29.32,NE,44,0.0,6.0,56,0.00,,,0.00,WeatherTracker,2013-01-13 00:00:00,
2013-01-12 18:10:00,45.1,29.5,29.35,North,11,3.0,7.0,54,0.00,,,0.00,WeatherTracker,2013-01-13 00:10:00,
2013-01-12 18:15:00,45.1,29.9,29.35,NNE,23,0.0,0.0,55,0.00,,,0.00,WeatherTracker,2013-01-13 00:15:00,
2013-01-12 18:25:00,44.6,29.4,29.38,North,4,2.0,0.0,55,0.00,,,0.00,WeatherTracker,2013-01-13 00:25:00,
2013-01-12 18:30:00,44.2,29.1,29.38,NW,320,2.0,3.0,55,0.00,,,0.00,WeatherTracker,2013-01-13 00:30:00,
2013-01-12 18:35:00,44.2,29.1,29.35,NNW,344,0.0,0.0,55,0.00,,,0.00,WeatherTracker,2013-01-13 00:35:00,
2013-01-12 18:45:00,43.9,29.2,29.35,ENE,62,0.0,0.0,56,0.00,,,0.00,WeatherTracker,2013-01-13 00:45:00,
2013-01-12 18:50:00,43.5,28.9,29.38,North,5,2.0,0.0,56,0.00,,,0.00,WeatherTracker,2013-01-13 00:50:00,
2013-01-12 19:00:00,43.2,28.5,29.38,WSW,243,0.0,0.0,56,0.00,,,0.00,WeatherTracker,2013-01-13 01:00:00,
2013-01-12 19:10:00,42.8,29.5,29.38,North,5,0.0,3.0,59,0.00,,,0.00,WeatherTracker,2013-01-13 01:10:00,
2013-01-12 19:15:00,42.4,28.7,29.38,North,10,2.0,2.0,58,0.00,,,0.00,WeatherTracker,2013-01-13 01:15:00,
2013-01-12 19:25:00,42.3,28.6,29.38,North,357,0.0,0.0,58,0.00,,,0.00,WeatherTracker,2013-01-13 01:25:00,
2013-01-12 19:35:00,42.1,28.0,29.38,NNW,340,2.0,4.0,57,0.00,,,0.00,WeatherTracker,2013-01-13 01:35:00,
2013-01-12 19:45:00,42.1,27.5,29.38,SW,232,3.0,4.0,56,0.00,,,0.00,WeatherTracker,2013-01-13 01:45:00,
2013-01-12 19:50:00,42.1,27.5,29.38,NNE,21,0.0,0.0,56,0.00,,,0.00,WeatherTracker,2013-01-13 01:50:00,
2013-01-12 20:00:00,42.3,28.1,29.38,NE,34,0.0,0.0,57,0.00,,,0.00,WeatherTracker,2013-01-13 02:00:00,
2013-01-12 20:10:00,41.9,26.0,29.38,ENE,60,0.0,0.0,53,0.00,,,0.00,WeatherTracker,2013-01-13 02:10:00,
2013-01-12 20:20:00,41.4,24.6,29.38,ESE,106,0.0,0.0,51,0.00,,,0.00,WeatherTracker,2013-01-13 02:20:00,
2013-01-12 20:30:00,41.2,24.9,29.38,NE,38,0.0,0.0,52,0.00,,,0.00,WeatherTracker,2013-01-13 02:30:00,
2013-01-12 20:35:00,41.0,24.7,29.38,North,1,0.0,3.0,52,0.00,,,0.00,WeatherTracker,2013-01-13 02:35:00,
2013-01-12 20:40:00,41.0,25.2,29.38,NNE,15,0.0,0.0,53,0.00,,,0.00,WeatherTracker,2013-01-13 02:40:00,
2013-01-12 20:45:00,41.0,25.2,29.38,North,0,0.0,0.0,53,0.00,,,0.00,WeatherTracker,2013-01-13 02:45:00,
2013-01-12 20:55:00,40.8,24.6,29.38,NE,54,0.0,0.0,52,0.00,,,0.00,WeatherTracker,2013-01-13 02:55:00,
2013-01-12 21:05:00,40.6,24.4,29.41,NNE,28,2.0,0.0,52,0.00,,,0.00,WeatherTracker,2013-01-13 03:05:00,
2013-01-12 21:10:00,40.6,24.9,29.41,NNE,28,0.0,0.0,53,0.00,,,0.00,WeatherTracker,2013-01-13 03:10:00,
2013-01-12 21:20:00,40.6,24.9,29.41,ENE,74,0.0,3.0,53,0.00,,,0.00,WeatherTracker,2013-01-13 03:20:00,
2013-01-12 21:30:00,40.6,24.9,29.41,NE,34,2.0,5.0,53,0.00,,,0.00,WeatherTracker,2013-01-13 03:30:00,
2013-01-12 21:35:00,40.6,24.9,29.41,North,2,0.0,0.0,53,0.00,,,0.00,WeatherTracker,2013-01-13 03:35:00,
2013-01-12 21:45:00,40.6,24.4,29.41,NE,51,0.0,0.0,52,0.00,,,0.00,WeatherTracker,2013-01-13 03:45:00,
2013-01-12 21:55:00,41.0,24.7,29.41,North,6,0.0,0.0,52,0.00,,,0.00,WeatherTracker,2013-01-13 03:55:00,
2013-01-12 22:05:00,40.6,24.4,29.41,North,0,3.0,0.0,52,0.00,,,0.00,WeatherTracker,2013-01-13 04:05:00,
2013-01-12 22:10:00,40.6,23.9,29.41,NE,51,0.0,4.0,51,0.00,,,0.00,WeatherTracker,2013-01-13 04:10:00,
2013-01-12 22:20:00,40.6,24.4,29.41,NNE,31,0.0,0.0,52,0.00,,,0.00,WeatherTracker,2013-01-13 04:20:00,
2013-01-12 22:30:00,40.6,25.3,29.41,North,0,2.0,3.0,54,0.00,,,0.00,WeatherTracker,2013-01-13 04:30:00,
2013-01-12 22:35:00,40.6,26.2,29.44,NNE,25,0.0,0.0,56,0.00,,,0.00,WeatherTracker,2013-01-13 04:35:00,
2013-01-12 22:40:00,40.6,26.6,29.44,NNE,32,0.0,0.0,57,0.00,,,0.00,WeatherTracker,2013-01-13 04:40:00,
2013-01-12 22:50:00,40.5,26.9,29.44,North,0,0.0,0.0,58,0.00,,,0.00,WeatherTracker,2013-01-13 04:50:00,
2013-01-12 22:55:00,40.5,26.4,29.44,South,188,0.0,0.0,57,0.00,,,0.00,WeatherTracker,2013-01-13 04:55:00,
2013-01-12 23:00:00,40.5,26.9,29.44,NNE,30,0.0,0.0,58,0.00,,,0.00,WeatherTracker,2013-01-13 05:00:00,
2013-01-12 23:05:00,40.3,26.3,29.44,North,357,0.0,0.0,57,0.00,,,0.00,WeatherTracker,2013-01-13 05:05:00,
2013-01-12 23:15:00,40.1,24.8,29.44,NE,52,0.0,0.0,54,0.00,,,0.00,WeatherTracker,2013-01-13 05:15:00,
2013-01-12 23:20:00,39.9,24.2,29.44,NE,47,0.0,0.0,53,0.00,,,0.00,WeatherTracker,2013-01-13 05:20:00,
2013-01-12 23:30:00,39.9,24.2,29.44,East,98,0.0,0.0,53,0.00,,,0.00,WeatherTracker,2013-01-13 05:30:00,
2013-01-12 23:40:00,39.7,23.6,29.44,NE,43,2.0,2.0,52,0.00,,,0.00,WeatherTracker,2013-01-13 05:40:00,
2013-01-12 23:45:00,39.7,24.0,29.44,NNW,334,2.0,4.0,53,0.00,,,0.00,WeatherTracker,2013-01-13 05:45:00,
2013-01-12 23:50:00,39.4,23.2,29.44,East,88,0.0,0.0,52,0.00,,,0.00,WeatherTracker,2013-01-13 05:50:00,